Location: *
(43.7000°S, 168.7000°W)
Time: 15:08:00
(UTC+00:00)

NOAA 12 - Pass Details

Date: 07 July 2020
Orbit: 795 x 815 km, 98.5° (Epoch: 03 August)

Event Time Altitude Azimuth Distance (km) Brightness Sun altitude
Rises 16:51:28 0° 13° (NNE) 3,302 7.6 -20.3°
Reaches altitude 10° 16:53:47 10° 12° (NNE) 2,377 6.8 -19.9°
Maximum altitude 16:59:03 82° 284° (WNW) 820 4.0 -19.0°
Drops below altitude 10° 17:04:23 10° 195° (SSW) 2,402 6.3 -18.0°
Enters shadow 17:05:16 - 195° (SSW) 2,752 6.6 -17.9°
